Find Yinhe 1

NORAD ID: 45024 Int'l Des: 2020-004 Owner: YINHE Country: CN Constellation: yinhe operational
LEOCIRCULARPOLAR

当前视图

正在加载3D地球...

关于 Yinhe 1

正在加载描述...

即将过境

Passes for default location (London). Set your location on the main map for personalized predictions.

高度历史

Loading altitude history...

两行轨道根数

1 45024U 20004A 26145.60797927 .00000467 00000-0 59394-4 0 9997
2 45024 86.3922 125.6831 0015990 80.3612 279.9414 14.79101375342583
Epoch: May 25, 2026 • Age: 19 hours

当前状态

高度 670.3 km
速度 7.52 km/s
星下点 -78.18°S, 78.11°E
发射日期 Jan 16, 2020
运行时间 6.3 years
类型 other

技术详情

分类 Payload
质量 227.00 kg
干质量 200.00 kg
总质量 227.00 kg
长度 2.00 m
直径 1.00 m
跨度 5.00 m
形状 Box+pan
制造商 YINHE
平台类型 YH
阶段状态 In Orbit
所有者/国家 YINHE/CN

Most Searched